Regional Weather Roundup
Issued by NWS

Home | Current Version | Previous Version | Text Only | Print | Product List | Glossary On
Versions: 1 2 3 4 5 6 7 8 9 10 11 12 13 14 15 16 17 18 19 20 21 22 23 24 25 26 27
000
ASUS42 KKEY 062010
RWRKEY

FLORIDA REGIONAL WEATHER ROUNDUP FOR THE FLORIDA KEYS
NATIONAL WEATHER SERVICE KEY WEST FLORIDA
400 PM EDT FRI MAY 06 2016

...SOUTH FLORIDA AND THE KEYS...

CITY           SKY/WX    TMP DP  RH WIND       PRES   REMARKS
FORT MYERS     SUNNY     78  49  35 W14G20    29.87F
SW REGIONAL AP MOSUNNY   77  49  37 NW8       29.87F
NAPLES         MOSUNNY   77  50  38 NW15G25   29.89F
MIAMI          MOSUNNY   81  50  33 W9        29.85F
WEST KENDALL   MOSUNNY   80  52  37 VRB6      29.85F
HOMESTEAD      SUNNY     82  53  36 NW15      29.84F
MARATHON       SUNNY     79  59  50 NW9       29.89F
BOCA CHICA NAS MOSUNNY   78  62  57 N14       29.90F
KEY WEST INTL  MOSUNNY   79  63  57 N10       29.90F

...INTERNATIONAL WEATHER...

CITY           SKY/WX    TMP DP  RH WIND       PRES   REMARKS
NASSAU BAHAMAS MOSUNNY   82  63  51 NW9       29.84F
CANCUN MEXICO  PTSUNNY   86  57  37 NW15      29.94F
COZUMEL MEXICO MOSUNNY   81  64  57 NE10      29.95F

ADJACENT COASTAL WATERS...

STATION/POSITION TIME  SKY/WX   TEMP    WIND        PRES    WAVE
                                AIR SEA DIR/SP/G            HT/PER
                 (UTC)          (F)     (DEG/KT/KT) (MB)    (FT/S)
PULASKI SHOAL LI 2000            74      20/  9/ 10 1012.9F
SAND KEY         1950            74      20/ 10/ 12 1012.9F
SOMBRERO KEY     NOT AVBL
LONG KEY         2000            74 80  310/ 11/ 13 1012.0F
MOLASSES REEF    2000            76 78  270/ 19/ 21 1011.1F
FOWEY ROCKS      NOT AVBL

$$




USA.gov is the U.S. government's official web portal to all federal, state and local government web resources and services.